Location: Rehoboth Beach
(38.7438°N, 75.1341°W)
Time: 00:28:31
(UTC-05:00)

Hubble Space Telescope - Visible Passes

Search period start: 27 November 2014 00:00
Search period end: 07 December 2014 00:00
Orbit: 546 x 549 km, 28.5° (Epoch: 26 November)

Date Brightness Start Highest point End Pass type
(mag) Time Alt. Az. Time Alt. Az. Time Alt. Az.
27 Nov 3.7 04:03:07 12° SE 04:03:07 12° SE 04:03:38 10° SE visible
27 Nov 3.0 05:38:39 10° SW 05:41:23 17° S 05:44:08 10° SSE visible
28 Nov 3.0 05:31:36 11° SW 05:33:43 15° SSW 05:36:13 10° SSE visible
29 Nov 3.1 05:24:32 12° SW 05:26:02 14° SSW 05:28:07 10° SSE visible
30 Nov 3.2 05:17:28 11° SSW 05:18:20 11° SSW 05:19:43 10° S visible
